Regional Weather Roundup
Issued by NWS Portland, ME

Current Version | Previous Version | Text Only | Print | Product List | Glossary Off
Versions: 1 2 3 4 5 6 7 8 9 10 11 12 13 14 15 16 17 18 19 20 21 22 23 24 25 26 27 28 29 30 31 32 33 34 35 36 37 38 39 40 41 42 43 44 45 46 47 48 49 50
757 ASUS41 KGYX 251810 RWRGYX WEATHER ROUNDUP FOR MAINE AND NEW HAMPSHIRE NATIONAL WEATHER SERVICE GRAY ME 200 PM EDT THU MAY 25 2017 MEZ002-005-006-010-012-015-018-020-021-024-026-027-029-251900- MAINE CITY SKY/WX TMP DP RH WIND PRES REMARKS PORTLAND LGT RAIN 54 48 80 E14 29.91S 6HR MIN TEMP: 53; 6HR MAX TEMP: 57; 6HR PCP: TRACE; SANFORD LGT RAIN 54 48 80 E14G21 29.88F BAR HARBOR CLOUDY 56 49 77 E7 29.97F WISCASSET CLOUDY 58 48 69 E10G18 29.94S 6HR MIN TEMP: 54; 6HR MAX TEMP: 60; ROCKLAND CLOUDY 54 48 80 E10 29.94F FRYEBURG LGT RAIN 61 50 67 E13G21 29.89F 6HR MIN TEMP: 53; 6HR MAX TEMP: 63; 6HR PCP: TRACE; LEWISTONAUBURN CLOUDY 60 49 66 E12 29.92R AUGUSTA CLOUDY 60 47 61 SE13 29.93F 6HR MIN TEMP: 53; 6HR MAX TEMP: 61; WATERVILLE CLOUDY 63 50 62 VRB3 29.91F BANGOR CLOUDY 63 49 60 E8 29.95F 6HR MIN TEMP: 56; 6HR MAX TEMP: 64; GREENVILLE N/A 61 49 64 VRB7 29.93F 6HR MIN TEMP: 55; 6HR MAX TEMP: 62; MILLINOCKET CLOUDY 67 50 54 E10 29.97F 6HR MIN TEMP: 52; 6HR MAX TEMP: 67; HOULTON CLOUDY 65 51 60 VRB7 29.98F 6HR MIN TEMP: 51; 6HR MAX TEMP: 66; PRESQUE ISLE CLOUDY 66 50 56 SE9 30.00F 6HR MIN TEMP: 53; 6HR MAX TEMP: 66; FRENCHVILLE CLOUDY 64 47 53 S8 29.99S 6HR MIN TEMP: 47; 6HR MAX TEMP: 64; CARIBOU CLOUDY 66 49 54 SE7 29.99S 6HR MIN TEMP: 54; 6HR MAX TEMP: 66; $$ NHZ002-005-008-009-011-012-014-251900- NEW HAMPSHIRE CITY SKY/WX TMP DP RH WIND PRES REMARKS PORTSMOUTH CLOUDY 54 47 78 NE14G23 29.83F ROCHESTER CLOUDY 56 46 69 E10G22 29.85F 6HR MIN TEMP: 52; 6HR MAX TEMP: 59; 6HR PCP: TRACE; NASHUA LGT RAIN 55 50 83 E14G20 29.82F MANCHESTER CLOUDY 57 46 66 E16G30 29.81F 6HR MIN TEMP: 54; 6HR MAX TEMP: 58; 6HR PCP: 0.02; CONCORD CLOUDY 59 48 67 E16G24 29.83F 6HR MIN TEMP: 53; 6HR MAX TEMP: 59; 6HR PCP: TRACE; LACONIA LGT RAIN 57 51 80 E12 29.86S BERLIN CLOUDY 62 47 57 SE14G22 29.87F 6HR MIN TEMP: 49; 6HR MAX TEMP: 63; WHITEFIELD CLOUDY 64 44 48 E7 29.82F 6HR MIN TEMP: 53; 6HR MAX TEMP: 66; JAFFREY LGT RAIN 52 51 97 MISG 29.79F FOG 6HR MIN TEMP: 52; 6HR MAX TEMP: 54; 6HR PCP: 0.03; KEENE CLOUDY 57 49 74 VRB6G21 29.76F LEBANON CLOUDY 59 52 77 E7 29.80F 6HR MIN TEMP: 56; 6HR MAX TEMP: 63; 6HR PCP: 0.03; MT WASHINGTON LGT RAIN 36 36 100 SE51G59 N/A VSB 0 6HR MIN TEMP: 34; 6HR MAX TEMP: 36; 6HR PCP: TRACE; $$ VTZ005-007-008-251900- VERMONT CITY SKY/WX TMP DP RH WIND PRES REMARKS ST JOHNSBURY N/A 63 46 54 MISG 29.80S MONTPELIER CLOUDY 60 48 64 SE9G18 29.83F BURLINGTON CLOUDY 66 48 52 SE14 29.75F $$ MAZ007-012-024-CTZ003-RIZ002-NYZ038-NYZ072-251900- SOUTHERN NEW ENGLAND AND NY CITY SKY/WX TMP DP RH WIND PRES REMARKS BOSTON LGT RAIN 52 51 97 NE17 29.78F VSB 1 WORCESTER LGT RAIN 50 48 93 NE14G25 29.75F FOG NANTUCKET CLOUDY 55 53 93 E15 29.69F FOG PROVIDENCE LGT RAIN 56 56 100 NE13 29.73F FOG HARTFORD LGT RAIN 57 56 96 NE9 29.70F FOG ALBANY LGT RAIN 56 52 86 NE7 29.68F NEW YORK CITY LGT RAIN 57 55 93 NE20 29.58F FOG $$ ANZ081-ANZ082-ANZ150-NHZ014-MEZ023>029-251900- COASTAL MARINE OBSERVATIONS STATION/POSITION TIME TEMP WIND PRES WAVE AIR SEA DIR/SP/G HT/PER (UTC) (F) (DEG/KT/KT) (MB) (FT/S) MOUNT DESERT ROC 1800 45 1013.7F ISLE OF SHOALS 1700 52 60/ 23/ 25 1010.1F JEFFREYS LEDGE 1736 50 N/A 5/ 8 CASHES LEDGE BUO 1750 50 49 1010.4F 5/ 9 GEORGES BANK BUO 1650 50 45 1008.9 8/10 $$ .............KEY.............. WCI - WIND CHILL TC - TEMPERATURE IN CELSIUS VSB - VISIBILITY IN MILES HX - HEAT INDEX FAIR- INDICATES FEW OR NO CLOUDS BELOW 12,000 FT, WITH NO SIGNIFICANT WEATHER AND/OR OBSTRUCTIONS TO VISIBILITY.

USA.gov is the U.S. government's official web portal to all federal, state and local government web resources and services.